Location: Betelried
(46.5333°N, 7.3833°E)
Time: 13:16:50
(UTC+00:00)

Daily predictions for brighter satellites

Satellite Brightness Start Highest point End
(mag) Time Altitude Azimuth Time Altitude Azimuth Time Altitude Azimuth
Cosmos 2061 Rocket 4.3 16:23:39 10° NNW 16:29:51 75° W 16:36:04 10° S
CZ-3B R/B 3.4 16:33:02 10° W 16:34:45 26° NNW 16:37:06 10° NE
Aureole 2 Rocket 4.4 16:32:20 10° WSW 16:35:16 27° WNW 16:38:20 10° N
GEOS 3 Rocket 3.9 16:30:17 10° NE 16:35:24 53° SE 16:40:32 10° SSW
YAOGAN 1 4.1 16:35:06 10° E 16:37:37 15° ENE 16:40:08 10° NNE
Cosmos 2221 2.6 16:33:57 10° S 16:38:09 55° E 16:42:24 10° NNE
Cosmos 1825 2.7 16:37:51 10° NNW 16:41:37 65° W 16:45:22 10° S
COBE Rocket 4.4 16:37:32 10° NNE 16:42:00 36° E 16:46:21 10° SSE
Lacrosse 4 Rocket 3.3 16:42:03 10° ESE 16:43:18 11° ESE 16:44:33 10° E
Okean-O 2.9 16:42:36 10° SE 16:46:49 45° ENE 16:51:04 10° N
Cosmos 1842 Rocket 3.7 16:42:33 10° S 16:47:03 86° W 16:51:33 10° N
Cosmos 1340 Rocket 4.0 16:44:27 10° SSW 16:48:18 45° WNW 16:52:13 10° N
Cosmos 1437 3.9 16:50:03 10° NNW 16:53:01 44° W 16:55:58 10° S
BREEZE-M DEB (TANK) 2.8 16:50:19 10° W 16:54:40 49° N 16:56:24 16° ENE
Cosmos 1633 3.8 16:51:48 10° NNE 16:54:43 22° ENE 16:57:36 10° SE
CZ-4B R/B 4.3 16:53:59 10° NNW 16:55:45 14° WNW 16:57:32 10° W
Cosmos 2219 3.1 16:50:15 10° NNW 16:55:54 78° ENE 17:01:31 10° SSE
Cosmos 1869 3.7 16:53:12 10° SSE 16:56:54 39° E 17:00:36 10° NNE
USA 215 3.8 16:53:04 11° E 16:58:49 41° NNE 17:04:49 10° NW
TELKOM 3 2.5 16:57:22 10° WNW 16:59:33 76° NNE 17:00:50 20° ESE
Cosmos 2369 Rocket 4.4 16:55:54 10° W 16:59:38 18° NW 17:03:23 10° N
CZ-4 R/B 2.3 16:56:36 10° SE 17:00:10 28° ENE 17:03:42 10° N
Cosmos 2233 Rocket 4.1 16:55:00 10° N 17:01:22 87° W 17:07:39 10° S
USA 229 DEB 3.8 16:58:34 10° SSW 17:04:55 55° ESE 17:11:20 11° NE
USA 229 3.8 16:58:42 10° SSW 17:05:01 55° ESE 17:11:24 11° NE
Cosmos 1743 Rocket 4.3 17:02:14 10° NNW 17:06:31 56° W 17:10:47 10° S
Cosmos 1447 Rocket 4.5 17:00:26 10° S 17:06:38 77° E 17:12:57 10° N
Cosmos 1805 Rocket 3.5 17:02:35 10° N 17:06:54 59° ENE 17:11:12 10° SSE
Envisat 3.0 17:03:45 10° SSE 17:08:44 59° ENE 17:13:45 10° N
CSL-04 Rocket 4.2 17:05:18 10° SE 17:10:08 36° ENE 17:14:56 10° N
NOSS 3-1 (A) 4.0 17:05:32 10° S 17:10:24 33° ESE 17:14:23 16° ENE
AQUARIUS 4.5 17:06:03 10° S 17:10:32 71° WSW 17:15:03 10° NNW
NOSS 3-1 (C) 3.5 17:05:48 10° SSW 17:11:06 52° ESE 17:16:25 14° NE
YAOGAN 3 4.5 17:08:58 10° SSE 17:13:19 80° ENE 17:17:42 10° N
Cosmos 1980 Rocket 3.7 17:11:50 10° SE 17:14:49 16° E 17:14:49 16° E
YAOGAN 6 2.9 17:11:52 10° SE 17:15:08 38° ENE 17:18:24 10° N
Cosmos 1939 Rocket 4.3 17:16:20 20° ENE 17:16:20 20° ENE 17:18:58 10° NNE
Cosmos 2227 Rocket 2.1 17:11:15 10° NNW 17:16:56 71° ENE 17:22:34 10° SE
Cosmos 2297 Rocket 2.1 17:11:33 10° NNW 17:17:14 77° ENE 17:22:54 10° SSE
CORIOLIS 4.5 17:13:02 10° S 17:18:25 71° WSW 17:23:52 10° NNW
Cosmos 2344 4.1 17:11:19 10° WSW 17:18:41 58° NW 17:27:05 10° NE
FengYun 1-2 T 4.2 17:14:08 10° SSE 17:19:33 58° ENE 17:24:57 10° N
Meteor 2-20 Rocket 4.4 17:16:06 10° S 17:22:06 62° E 17:28:10 10° NNE
Cosmos 1464 Rocket 4.0 17:16:59 10° N 17:23:04 57° ENE 17:29:05 10° SSE
SeaSat 1 2.6 17:18:46 10° SSE 17:23:41 80° WSW 17:28:39 10° NNW
H-2A R/B 4.2 17:26:41 10° S 17:30:20 41° W 17:34:00 10° NNW
Cosmos 1072 Rocket 4.4 17:25:39 10° N 17:31:47 72° E 17:37:56 10° SSE
Cosmos 2369 4.1 17:27:57 10° S 17:33:13 41° ESE 17:36:23 22° NE
Geosat 4.2 17:31:16 10° NNE 17:36:18 73° WNW 17:41:19 10° SW
Cosmos 1633 Rocket 3.1 17:32:46 10° N 17:37:06 53° ENE 17:41:26 10° SSE
Genesis I 4.2 17:35:32 10° WSW 17:39:23 44° NW 17:42:05 18° NNE
Cosmos 2263 Rocket 3.6 17:37:36 10° N 17:41:12 19° NE 17:41:12 19° NE
Cosmos 2082 3.6 17:38:24 10° NNW 17:44:02 73° ENE 17:49:39 10° SSE
Cosmos 1680 Rocket 3.9 17:39:16 10° S 17:44:07 40° ESE 17:45:41 32° ENE
COSMO-SKYMED 1 2.4 17:40:02 10° NNE 17:44:23 80° ESE 17:48:44 10° S
Cosmos 1862 3.1 17:43:00 10° N 17:47:00 72° E 17:50:58 10° SSE
ERBS 2.7 17:44:20 10° SSW 17:47:20 46° SSE 17:47:20 46° SSE
Cosmos 1666 Rocket 3.4 17:43:17 10° N 17:47:42 84° ENE 17:52:03 10° S
Cosmos 1607 4.4 17:43:08 10° NW 17:49:15 62° WSW 17:55:25 10° SSE
NOSS 2-3 (C) 4.2 17:46:13 10° S 17:50:14 37° ESE 17:50:24 37° ESE
Sich 1 3.4 17:47:05 10° NNW 17:51:23 66° W 17:55:42 10° S
Ariane Rocket 3.4 17:51:23 38° ENE 17:51:44 38° ENE 17:56:25 10° N
CENTAUR R/B 4.4 17:47:23 10° NW 17:52:51 22° N 17:56:08 17° NE
Cosmos 2278 4.0 17:48:00 10° S 17:53:21 45° ESE 17:54:51 37° ENE
Cosmos 1328 Rocket 3.6 17:49:25 10° S 17:53:42 51° E 17:54:25 46° ENE
Cosmos 1697 Rocket 2.7 17:49:09 10° S 17:54:40 57° ESE 17:57:08 32° NE
H-2A R/B 4.1 18:00:03 13° NNE 18:00:03 13° NNE 18:00:50 10° NNE
ATLAS 5 CENTAUR R/B 3.0 17:53:52 10° NW 17:59:35 59° WSW 18:06:07 10° SSE
Cosmos 1151 Rocket 3.1 17:55:24 10° S 17:59:23 53° ESE 17:59:23 53° ESE
BREEZE-M DEB (TANK) 3.0 18:01:30 10° SW 18:06:06 40° SSE 18:06:06 40° SSE
Cosmos 923 Rocket 3.9 18:03:04 10° SSW 18:08:18 84° ESE 18:10:51 31° NNE
ATLAS 3B R/B 4.3 18:05:13 10° NW 18:09:37 18° N 18:11:27 16° NNE
YAOGAN 1 2.9 18:08:55 10° S 18:13:12 65° WSW 18:17:31 10° NNW
Cosmos 1624 Rocket 4.1 18:08:43 10° NNW 18:13:48 54° NE 18:13:48 54° NE
Cosmos 2056 Rocket 3.7 18:08:58 10° NNW 18:13:20 48° NE 18:13:20 48° NE
Cosmos 1470 Rocket 3.6 18:14:01 10° N 18:17:57 66° NNE 18:17:57 66° NNE
Cosmos 2346 Rocket 4.3 18:12:38 10° S 18:18:53 80° E 18:25:06 10° N
Cosmos 2034 Rocket 4.1 18:12:52 10° N 18:19:13 78° W 18:25:35 10° S
Lacrosse 4 Rocket 1.5 18:17:16 10° SW 18:21:00 70° WSW 18:21:00 70° WSW
NOAA 11 4.1 18:20:31 10° SSE 18:25:56 83° WSW 18:31:25 10° NNW
Cosmos 1656 4.4 18:24:17 10° SW 18:29:39 49° WNW 18:33:00 22° N
CZ-4 R/B 3.4 18:31:30 10° SSW 18:35:08 29° W 18:38:45 10° NW
Cosmos 724 4.2 18:34:02 10° NW 18:39:54 80° WSW 18:40:39 67° S
Tsikada Rocket 4.0 18:34:34 10° S 18:40:56 83° W 18:47:24 10° N
USA 215 3.1 18:40:27 67° E 18:41:22 79° NE 18:47:55 10° NW
Cosmos 1634 Rocket 4.0 18:35:20 10° N 18:40:42 63° NNE 18:40:42 63° NNE
Cosmos 1980 Rocket 2.8 18:52:34 10° SSW 18:56:39 49° SSW 18:56:39 49° SSW
NOSS 3-1 (A) 4.0 18:55:24 10° WSW 19:00:56 52° NW 19:01:51 48° NNW
Cosmos 2263 Rocket 3.9 19:20:39 10° NNW 19:22:55 25° NNW 19:22:55 25° NNW
Cosmos 1697 Rocket 4.4 19:34:10 10° WSW 19:38:55 28° NW 19:38:55 28° NW
CENTAUR R/B 4.2 19:38:45 10° NW 19:43:18 31° N 19:43:18 31° N
